User: anonymous   Login
Location: Arrodets-la-Barthe
(43.0306°N, 0.2829°E)
Time: 04:07:28
(UTC+00:00)
Language:

Okean-O - Orbit

View from above orbital plane
View from above orbital plane
View from above satellite
View from above satellite

Ground track
Ground track

The orbit data is extracted from the following two-line orbital elements,

1 25860U 99039A   22024.55171080  .00000151  00000-0  29040-4 0  9994
2 25860  98.1594  63.0305 0001656 108.4237 251.7153 14.76815349212017
Epoch (UTC): 24 January 2022 13:14:27
Eccentricity: 0.0001656
inclination: 98.1594°
perigee height: 638 km
apogee height: 640 km
right ascension of ascending node: 63.0305°
argument of perigee: 108.4237°
revolutions per day: 14.76815349
mean anomaly at epoch: 251.7153°
orbit number at epoch: 21201

The dashed part of the orbit path shows where the satellite is in the earth's shadow,  

DLR